Weather History for Kivalina, AK

Change the Weather History Date:

Saturday, March 2, 2013

  Actual Average Record
Temperature  
Mean Temperature -22 °F -  
Max Temperature -11 °F - - ()
Min Temperature -32 °F - - ()
Degree Days  
Heating Degree Days 88    
Moisture  
Dew Point -27 °F    
Average Humidity 76    
Maximum Humidity 81    
Minimum Humidity 70    
Precipitation  
Precipitation 0.00 in - - ()
Sea Level Pressure  
Sea Level Pressure 30.19 in    
Wind  
Wind Speed 5 mph (ENE)    
Max Wind Speed 10 mph    
Max Gust Speed -    
Visibility 9 miles    
Events      
T = Trace of Precipitation, MM = Missing Value Source: NWS Daily Summary

Daily Weather History Graph

Daily Weather History Graph

Search for Another Location

Airport:

Trip Planner

Search our weather history database for the weather conditions in past years. The results will help you decide how hot, cold, wet, or windy it might be!

Date:

Astronomy

Mar. 02, 2013 Rise Set
Actual Time 9:10 AM AKST 7:11 PM AKST
Civil Twilight 8:14 AM AKST 8:07 PM AKST
Nautical Twilight 7:11 AM AKST 9:11 PM AKST
Astronomical Twilight 6:04 AM AKST 10:19 PM AKST
Moon 2:44 AM AKST (3/2) 8:53 AM AKST (3/2)
Length of Visible Light 11h 52m
Length of Day
10h 01m
Waning Gibbous, 72% of the Moon is Illuminated
Mar 2
Waning Gibbous
Mar 4
Last Quarter
Mar 11
New
Mar 19
First Quarter
Mar 27
Full

Hourly Weather History & Observations

Time (AKST) Temp. Windchill Dew Point Humidity Pressure Visibility Wind Dir Wind Speed Gust Speed Precip Events Conditions
12:53 AM -29.9 °F -44.8 °F - N/A% 30.17 in 10.0 mi ENE 4.6 mph - N/A   Clear
1:53 AM -27.0 °F -49.8 °F -32.1 °F 77% 30.16 in 10.0 mi NNE 10.4 mph - N/A   Clear
3:53 AM -25.1 °F -43.1 °F -29.9 °F 78% 30.15 in 10.0 mi NNE 6.9 mph - N/A   Clear
4:53 AM -27.0 °F - -31.0 °F 81% 30.15 in 10.0 mi Calm Calm - N/A   Clear
5:53 AM -26.0 °F -40.2 °F -32.1 °F 73% 30.15 in 10.0 mi East 4.6 mph - N/A   Clear
6:53 AM -29.9 °F -52.1 °F - N/A% 30.16 in 10.0 mi ENE 9.2 mph - N/A   Clear
7:53 AM -29.9 °F -49.0 °F - N/A% 30.15 in 10.0 mi East 6.9 mph - N/A   Clear
8:53 AM -29.0 °F -41.0 °F -34.1 °F 77% 30.17 in 10.0 mi East 3.5 mph - N/A   Clear
9:53 AM -32.1 °F -49.6 °F - N/A% 30.18 in 9.0 mi East 5.8 mph - N/A   Clear
10:53 AM -31.0 °F -50.3 °F - N/A% 30.19 in 9.0 mi East 6.9 mph - N/A   Clear
11:51 AM -27.4 °F - -32.8 °F 75% 30.21 in 2.5 mi Calm Calm - N/A   Clear
11:53 AM -27.0 °F - -32.1 °F 77% 30.21 in 4.0 mi Calm Calm - N/A   Haze
12:53 PM -25.1 °F -39.1 °F -31.0 °F 74% 30.22 in 10.0 mi NE 4.6 mph - 0.00 in   Clear
1:53 PM -20.9 °F -34.3 °F -27.9 °F 70% 30.22 in 10.0 mi NE 4.6 mph - N/A   Clear
2:53 PM -18.0 °F -28.5 °F -23.1 °F 78% 30.21 in 10.0 mi ENE 3.5 mph - N/A   Clear
3:53 PM -18.9 °F -32.0 °F -25.1 °F 74% 30.20 in 9.0 mi ENE 4.6 mph - 0.00 in   Clear
4:53 PM -17.0 °F - -23.1 °F 74% 30.20 in 9.0 mi Calm Calm - N/A   Clear
5:53 PM -17.0 °F - -23.1 °F 74% 30.20 in 9.0 mi Calm Calm - N/A   Clear
6:53 PM -14.1 °F - -18.9 °F 79% 30.22 in 9.0 mi Calm Calm - N/A   Clear
7:53 PM -18.9 °F -29.5 °F -24.0 °F 78% 30.21 in 10.0 mi NNW 3.5 mph - N/A   Clear
8:53 PM -25.1 °F -43.1 °F -29.9 °F 78% 30.19 in 10.0 mi ENE 6.9 mph - N/A   Clear
9:53 PM -18.9 °F -37.2 °F -24.0 °F 78% 30.19 in 10.0 mi NNE 8.1 mph - N/A   Clear
10:53 PM -13.0 °F -32.4 °F -18.0 °F 78% 30.18 in 10.0 mi NE 10.4 mph - N/A   Clear
11:53 PM -11.9 °F -28.7 °F -17.0 °F 78% 30.19 in 10.0 mi ENE 8.1 mph - N/A   Clear